[[{"header":{"parameterUnit":"m.s-1","parameterCategory":2,"la1":30.2991,"la2":30.254,"lo1":-89.0895,"lo2":-89.0444,"dy":0.0017,"dx":0.0017,"nx":28,"ny":28,"refTime":"2025-07-21T21:00:00:Z","depth":"0","parameterNumber":2,"parameterNumberName":"U-component_of_CURRENTS"},"data":[0,0,0,0,0,0,0,0,0,0,0,0,0,0,0,0,0,0,0,0,0,0,0,0,0,0,0,0,0,0,0,0,0,0,0,0,0,0,0,0,0,0,0,0,0,0,0,0,0,0,0,0,0,0,0,0,0,0,0.3786,0.3786,0,0.3837,0.3838,0.3839,0.3823,0.3822,0.382,0.3819,0.391,0.3913,0.3917,0,0,0,0,0,0,0,0,0,0,0,0,0,0.3774,0.3774,0.3786,0.3786,0.3787,0.3837,0.3838,0.3839,0.3823,0.3822,0.382,0.3818,0.3909,0.3913,0.3917,0,0,0,0,0,0,0,0,0,0,0,0,0,0.38,0.3774,0.3786,0.3782,0.3782,0.3837,0.3838,0.3839,0.3824,0.3822,0.382,0.3818,0.3907,0.3912,0.3918,0.3994,0,0,0.3935,0.3937,0,0,0,0,0,0,0,0,0.3799,0.3801,0.3783,0.3783,0.3783,0.3819,0.3867,0.3892,0.3824,0.3812,0.3819,0.3817,0.3882,0.389,0.3908,0.3998,0.4002,0.3935,0.3939,0.3941,0.3943,0,0,0,0,0,0,0,0.3797,0.3799,0.3809,0.3783,0.3783,0.3812,0.3813,0.3872,0.3861,0.3812,0.3811,0.3812,0.3883,0.3903,0.391,0.4003,0.3935,0.394,0.3944,0.3946,0.4232,0.4236,0,0,0,0,0,0,0.3781,0.3797,0.3808,0.3811,0.3782,0.3813,0.3815,0.3812,0.386,0.3864,0.3814,0.3811,0.3894,0.3904,0.3913,0.4052,0.3941,0.3946,0.3949,0.4228,0.4233,0.4237,0,0,0,0,0,0,0.3781,0.3781,0.3806,0.3803,0.3807,0.3815,0.3813,0.3814,0.3829,0.3859,0.3864,0.3825,0.3893,0.3906,0.3995,0.4053,0.3949,0.3954,0.4223,0.4229,0.4235,0.43,0,0,0,0,0,0,0.378,0.3781,0.3789,0.3802,0.3807,0.3863,0.3814,0.3816,0.3832,0.3829,0.3872,0.3878,0.3892,0.3987,0.4,0.4059,0.3958,0.4217,0.4226,0.4233,0.4292,0.4308,0.4321,0,0,0,0,0,0.3779,0.3802,0.3789,0.3791,0.3812,0.3865,0.3873,0.3872,0.3834,0.3872,0.39,0.3877,0.4047,0.3995,0.401,0.4071,0.4213,0.4223,0.4232,0.4286,0.4305,0.4321,0,0,0,0,0,0,0.3809,0.3803,0.3788,0.3808,0.3842,0.3861,0.3895,0.3879,0.3928,0.392,0.3931,0.3943,0.4053,0.4062,0.4003,0.4183,0.4128,0.4141,0.4164,0.4182,0.4195,0.4179,0.3963,0,0,0,0,0,0.3816,0.3828,0.3836,0.386,0.3875,0.3882,0.3902,0.3899,0.3934,0.395,0.3982,0.4031,0.4109,0.4138,0.4213,0.4301,0.4301,0.4355,0.4369,0.4381,0.4383,0.4465,0.4485,0.4269,0.4269,0.4269,0,0,0.3835,0.3834,0.3842,0.3868,0.389,0.3937,0.3892,0.3931,0.3974,0.3957,0.4044,0.4092,0.415,0.4262,0.4309,0.4268,0.4441,0.4393,0.4402,0.4397,0.4477,0.4497,0.4515,0.4276,0.4274,0.4273,0,0,0.3887,0.3881,0.3909,0.3943,0.3972,0.3986,0.3996,0.4027,0.4047,0.4135,0.4143,0.4219,0.4327,0.4378,0.4416,0.4555,0.4527,0.4585,0.4626,0.4706,0.4723,0.4738,0.474,0.4755,0.4575,0.4575,0.4575,0,0.3915,0.3932,0.3936,0.3981,0.4006,0.4008,0.4052,0.4098,0.4157,0.4192,0.4178,0.4354,0.4385,0.4516,0.4557,0.4584,0.4599,0.4545,0.472,0.4735,0.4749,0.4748,0.4763,0.458,0.4579,0.4579,0.4578,0,0.3978,0.4006,0.4038,0.4082,0.4122,0.4168,0.421,0.4266,0.428,0.4318,0.445,0.4511,0.4602,0.4636,0.4632,0.4763,0.473,0.4735,0.466,0.4774,0.4766,0.4781,0.4586,0.4584,0.4583,0.4582,0,0,0.3991,0.4063,0.4071,0.4098,0.4165,0.4199,0.4297,0.4376,0.4434,0.4517,0.4607,0.473,0.4741,0.4785,0.4804,0.4856,0.4947,0.4829,0.4831,0.48,0.5077,0.4871,0.4866,0.4986,0.499,0.4993,0.5019,0,0.4034,0.4112,0.4139,0.4224,0.4263,0.4308,0.4398,0.4475,0.4546,0.4651,0.4722,0.4833,0.4807,0.4851,0.4908,0.4955,0.4995,0.4936,0.4998,0.4998,0.4777,0.488,0.466,0.465,0.5033,0.5035,0.5037,0,0.4053,0.4109,0.4178,0.4267,0.429,0.4347,0.4457,0.4543,0.4695,0.4755,0.4868,0.493,0.5037,0.4997,0.5113,0.5079,0.5081,0.5096,0.5098,0.4891,0.482,0.4609,0.4662,0.4582,0.5059,0.5057,0.5055,0,0.4003,0.4116,0.4158,0.4193,0.4314,0.4356,0.4429,0.4567,0.4651,0.4825,0.4905,0.5041,0.5101,0.5175,0.5185,0.517,0.5285,0.5271,0.5084,0.5067,0.4881,0.484,0.4836,0.5356,0.5356,0.5356,0.5356,0,0.3994,0.4032,0.4139,0.4167,0.4246,0.4333,0.4429,0.4537,0.4696,0.4798,0.4946,0.5037,0.5152,0.5224,0.5236,0.5184,0.5328,0.5098,0.5077,0.4893,0.4855,0.4775,0.475,0.5357,0.5357,0.5357,0.5357,0,0.3915,0.3979,0.4046,0.4175,0.4212,0.4267,0.4414,0.4499,0.4659,0.4799,0.4861,0.5047,0.5109,0.5186,0.5273,0.5202,0.5057,0.5156,0.4881,0.4825,0.4508,0.4494,0.4299,0.4181,0.4941,0.4937,0.4933,0,0.3878,0.3902,0.4028,0.4068,0.4121,0.4215,0.4285,0.4456,0.4551,0.4781,0.4846,0.4967,0.4997,0.5034,0.4962,0.4924,0.4873,0.4683,0.4606,0.4458,0.4432,0.4315,0.4226,0.439,0.4382,0.4375,0.437,0,0.3839,0.3874,0.3938,0.4015,0.4078,0.4148,0.4261,0.4319,0.4511,0.4595,0.4698,0.4741,0.4769,0.4606,0.455,0.4518,0.4446,0.4536,0.4506,0.4085,0.3844,0.373,0.4369,0.4311,0.4317,0.4321,0.4324,0.4327,0.3812,0.3834,0.3909,0.3957,0.4016,0.4042,0.4022,0.4125,0.4179,0.4223,0.4418,0.435,0.434,0.4198,0.4148,0.3922,0.397,0.3798,0.3818,0.3733,0.3531,0.3976,0.3815,0.3818,0.382,0.3822,0.3824,0,0.3775,0.3794,0.3849,0.3866,0.3832,0.3916,0.3965,0.3881,0.3802,0.3885,0.3879,0.3798,0.3638,0.3633,0.3457,0.3284,0.3184,0.3201,0.3062,0.3032,0.3545,0.3433,0.3033,0.3033,0.3033,0.3033,0.3033,0.3033,0.3765,0.3765,0.3765,0.3665,0.3647,0.3526,0.3488,0.3379,0.3368,0.319,0.3096,0.3154,0.3282,0.3203,0.3008,0.2923,0.2778,0.2557,0.2639,0.3089,0.3149,0.3207,0.3099,0.2635,0.2635,0.1998,0.1993,0.1989]},{"header":{"parameterUnit":"m.s-1","parameterCategory":2,"la1":30.2991,"la2":30.254,"lo1":-89.0895,"lo2":-89.0444,"dy":0.0017,"dx":0.0017,"nx":28,"ny":28,"refTime":"2025-07-21T21:00:00:Z","depth":"0","parameterNumber":3,"parameterNumberName":"V-component_of_CURRENTS"},"data":[0,0,0,0,0,0,0,0,0,0,0,0,0,0,0,0,0,0,0,0,0,0,0,0,0,0,0,0,0,0,0,0,0,0,0,0,0,0,0,0,0,0,0,0,0,0,0,0,0,0,0,0,0,0,0,0,0,0,0.0356,0.0356,0,0.0336,0.0336,0.0335,0.0308,0.0307,0.0307,0.0306,0.0282,0.0282,0.0282,0,0,0,0,0,0,0,0,0,0,0,0,0,0.0329,0.033,0.0356,0.0356,0.0355,0.0336,0.0336,0.0335,0.0308,0.0307,0.0306,0.0306,0.0282,0.0282,0.0282,0,0,0,0,0,0,0,0,0,0,0,0,0,0.0328,0.033,0.0356,0.0339,0.0338,0.0336,0.0336,0.0335,0.0308,0.0307,0.0306,0.0306,0.0282,0.0282,0.0281,0.0294,0,0,0.0281,0.028,0,0,0,0,0,0,0,0,0.0328,0.0329,0.0342,0.034,0.0339,0.0324,0.0317,0.0321,0.0308,0.0319,0.0306,0.0305,0.0296,0.0295,0.0292,0.0292,0.0291,0.0281,0.028,0.028,0.028,0,0,0,0,0,0,0,0.0328,0.0329,0.0348,0.0342,0.034,0.0319,0.0318,0.0318,0.0312,0.0318,0.0316,0.0314,0.0295,0.0293,0.0292,0.0291,0.0281,0.028,0.028,0.028,0.0336,0.0338,0,0,0,0,0,0,0.0334,0.033,0.0348,0.0347,0.0331,0.032,0.0319,0.0329,0.0312,0.0308,0.0315,0.0313,0.0294,0.0292,0.0291,0.0342,0.028,0.028,0.028,0.0334,0.0336,0.0338,0,0,0,0,0,0,0.0334,0.0336,0.0349,0.0337,0.0337,0.0321,0.0332,0.0329,0.0328,0.0309,0.0306,0.0317,0.0293,0.0291,0.031,0.0339,0.028,0.0279,0.0332,0.0335,0.0337,0.042,0,0,0,0,0,0,0.0333,0.0337,0.0344,0.0338,0.0338,0.036,0.0333,0.0329,0.0328,0.0325,0.031,0.0307,0.0292,0.0311,0.0309,0.0338,0.0279,0.033,0.0334,0.0336,0.0416,0.0425,0.0434,0,0,0,0,0,0.0333,0.0355,0.0345,0.0347,0.035,0.0361,0.036,0.0344,0.0329,0.0339,0.0335,0.0307,0.0329,0.0312,0.031,0.0339,0.0329,0.0333,0.0336,0.0411,0.0424,0.0434,0,0,0,0,0,0,0.0346,0.0354,0.0343,0.0365,0.0365,0.0356,0.0363,0.035,0.0354,0.0353,0.033,0.0328,0.0355,0.0338,0.0319,0.0365,0.0324,0.0328,0.0382,0.0393,0.0402,0.0432,0.0279,0,0,0,0,0,0.0353,0.0372,0.0369,0.0386,0.0388,0.0374,0.0375,0.0369,0.037,0.0369,0.0362,0.036,0.037,0.0374,0.0377,0.0402,0.0379,0.042,0.0429,0.0437,0.0461,0.0458,0.0469,0.0351,0.0351,0.035,0,0,0.0361,0.0368,0.0377,0.0389,0.0386,0.0413,0.0374,0.0386,0.0416,0.0368,0.0406,0.0391,0.0384,0.0417,0.0427,0.0406,0.0454,0.0442,0.0448,0.0468,0.0463,0.0474,0.0484,0.0353,0.0353,0.0352,0,0,0.0399,0.0395,0.0427,0.0434,0.044,0.044,0.0447,0.0448,0.0454,0.0485,0.0463,0.0472,0.0481,0.0488,0.0491,0.0553,0.0503,0.0546,0.0618,0.0614,0.0624,0.0632,0.0598,0.0603,0.0551,0.0551,0.0551,0,0.0408,0.0452,0.0436,0.047,0.0487,0.0459,0.0503,0.051,0.052,0.0543,0.0512,0.0546,0.0523,0.0578,0.0594,0.0576,0.0553,0.0574,0.0626,0.0634,0.0641,0.0604,0.0608,0.0556,0.0555,0.0555,0.0554,0,0.0475,0.0507,0.0527,0.0566,0.058,0.0613,0.0621,0.0645,0.0643,0.0651,0.0697,0.0672,0.0696,0.0682,0.0655,0.0703,0.0661,0.0636,0.0597,0.0658,0.0615,0.0618,0.0562,0.056,0.0559,0.0558,0,0,0.0511,0.0567,0.0574,0.0615,0.0638,0.0666,0.0718,0.0768,0.0825,0.0815,0.0887,0.0877,0.0854,0.0857,0.0819,0.0808,0.0813,0.0746,0.0744,0.0711,0.0785,0.0705,0.0699,0.0793,0.0794,0.0795,0.0726,0,0.0572,0.0663,0.0671,0.076,0.081,0.0811,0.0871,0.0907,0.093,0.0991,0.0966,0.1013,0.0924,0.0941,0.0917,0.0853,0.0828,0.0833,0.0733,0.073,0.0651,0.0704,0.0701,0.0636,0.0728,0.0729,0.0729,0,0.064,0.0697,0.0793,0.0882,0.0905,0.0951,0.1048,0.1101,0.1162,0.1182,0.1207,0.1185,0.1185,0.1096,0.1012,0.1017,0.0914,0.0842,0.0837,0.0744,0.0658,0.0595,0.0637,0.0527,0.0733,0.0732,0.0732,0,0.0688,0.0785,0.087,0.0897,0.0988,0.1039,0.1092,0.1161,0.1245,0.1311,0.1374,0.1347,0.1357,0.1242,0.1078,0.1053,0.0966,0.0912,0.074,0.0731,0.0702,0.0689,0.063,0.0853,0.0853,0.0853,0.0854,0,0.0758,0.0827,0.0903,0.0954,0.108,0.1108,0.1243,0.1297,0.14,0.1528,0.148,0.1562,0.1395,0.132,0.1145,0.0953,0.1014,0.077,0.0723,0.0727,0.0717,0.0596,0.0497,0.0851,0.0851,0.0852,0.0852,0,0.0802,0.0845,0.0958,0.1064,0.1107,0.1199,0.135,0.1461,0.1532,0.1699,0.1734,0.1734,0.1629,0.1431,0.1239,0.1047,0.0773,0.0776,0.0772,0.0725,0.0445,0.035,0.0203,0.0148,0.0584,0.0582,0.058,0,0.0835,0.0895,0.1036,0.1119,0.1173,0.1306,0.1418,0.1524,0.1658,0.1813,0.1917,0.1863,0.1848,0.1517,0.1176,0.0854,0.0712,0.0625,0.0575,0.0447,0.0307,0.025,0.0212,0.0559,0.0557,0.0555,0.0554,0,0.0908,0.095,0.1046,0.1211,0.1337,0.1492,0.1657,0.1784,0.1934,0.2061,0.2197,0.2188,0.1874,0.1545,0.1084,0.0858,0.0529,0.058,0.0474,0.0307,0.022,0.0139,0.0562,0.0541,0.0542,0.0543,0.0544,0.0544,0.0964,0.104,0.1162,0.1321,0.1471,0.1667,0.1804,0.1981,0.2185,0.2378,0.2371,0.2362,0.19,0.1271,0.0964,0.0415,0.0403,0.025,0.015,0.0111,0.0047,0.0417,0.0324,0.0324,0.0324,0.0324,0.0324,0,0.1036,0.1124,0.1271,0.1459,0.1625,0.1696,0.1962,0.2103,0.2327,0.2459,0.2537,0.2292,0.1736,0.1193,0.0435,0.0073,-0.0022,-0.0114,-0.0159,-0.0174,0.0192,0.0184,0.0027,0.0027,0.0027,0.0027,0.0027,0.0027,0.108,0.1216,0.1286,0.155,0.1685,0.1914,0.2065,0.2264,0.2406,0.2527,0.2501,0.2467,0.2037,0.0743,-0.006,-0.0239,-0.0434,-0.0541,-0.0623,-0.0344,-0.0315,-0.0287,-0.0312,-0.0571,-0.0572,-0.0898,-0.0902,-0.0905]}],[{"header":{"parameterUnit":"m.s-1","parameterCategory":2,"la1":30.2991,"la2":30.254,"lo1":-89.0895,"lo2":-89.0444,"dy":0.0017,"dx":0.0017,"nx":28,"ny":28,"refTime":"2025-07-21T21:00:00:Z","depth":"2","parameterNumber":2,"parameterNumberName":"U-component_of_CURRENTS"},"data":[0,0,0,0,0,0,0,0,0,0,0,0,0,0,0,0,0,0,0,0,0,0,0,0,0,0,0,0,0,0,0,0,0,0,0,0,0,0,0,0,0,0,0,0,0,0,0,0,0,0,0,0,0,0,0,0,0,0,0.3205,0.3206,0,0.3222,0.3222,0.3221,0.3203,0.3202,0.3202,0.3201,0.3247,0.3249,0.325,0,0,0,0,0,0,0,0,0,0,0,0,0,0.3182,0.3182,0.3205,0.3206,0.3206,0.3222,0.3222,0.3221,0.3203,0.3202,0.3202,0.3201,0.3247,0.3248,0.325,0,0,0,0,0,0,0,0,0,0,0,0,0,0.3191,0.3182,0.3205,0.3201,0.3201,0.3222,0.3222,0.3221,0.3203,0.3202,0.3201,0.3201,0.3246,0.3248,0.3251,0.3277,0,0,0.3258,0.3259,0,0,0,0,0,0,0,0,0.3191,0.3192,0.3201,0.3202,0.3202,0.3212,0.323,0.3243,0.3203,0.3199,0.3201,0.3201,0.3241,0.3244,0.3243,0.3279,0.3281,0.3258,0.3259,0.3261,0.3261,0,0,0,0,0,0,0,0.319,0.3191,0.3208,0.3202,0.3202,0.3207,0.3207,0.3232,0.3221,0.3199,0.3198,0.3206,0.3241,0.324,0.3244,0.3282,0.3258,0.326,0.3262,0.3262,0.3441,0.3444,0,0,0,0,0,0,0.3194,0.319,0.3208,0.3209,0.3199,0.3208,0.3208,0.3207,0.322,0.3222,0.3206,0.3205,0.3237,0.3241,0.3245,0.3351,0.326,0.3263,0.3264,0.3437,0.3441,0.3445,0,0,0,0,0,0,0.3194,0.3195,0.3207,0.3203,0.3206,0.321,0.3208,0.3208,0.3222,0.3226,0.3228,0.3223,0.3236,0.3242,0.33,0.335,0.3264,0.3266,0.3433,0.3439,0.3443,0.3516,0,0,0,0,0,0,0.3193,0.3195,0.3205,0.3203,0.3206,0.3235,0.3209,0.3208,0.3228,0.3227,0.3241,0.3243,0.3236,0.3296,0.3302,0.3352,0.3268,0.3429,0.3436,0.3442,0.3509,0.3522,0.3534,0,0,0,0,0,0.3192,0.3205,0.3205,0.3208,0.3216,0.3236,0.3239,0.3237,0.323,0.3245,0.3267,0.3244,0.334,0.3301,0.3307,0.3358,0.3426,0.3434,0.3441,0.3503,0.352,0.3534,0,0,0,0,0,0,0.3203,0.3205,0.3205,0.3219,0.3236,0.3235,0.3255,0.3252,0.3278,0.3286,0.328,0.3285,0.3365,0.3356,0.3312,0.3433,0.3382,0.3391,0.3428,0.3443,0.3456,0.3438,0.327,0,0,0,0,0,0.3211,0.3219,0.3228,0.3243,0.3256,0.326,0.3272,0.3273,0.3292,0.3302,0.3311,0.3343,0.3399,0.3414,0.3456,0.3507,0.3502,0.355,0.3562,0.3572,0.3566,0.3635,0.3652,0.3469,0.3469,0.3469,0,0,0.3221,0.3224,0.323,0.3247,0.326,0.3287,0.3265,0.3295,0.3325,0.3307,0.3358,0.3394,0.343,0.3501,0.3534,0.3494,0.362,0.3582,0.359,0.3578,0.3644,0.3662,0.3677,0.3474,0.3473,0.3473,0,0,0.3242,0.3251,0.3266,0.3285,0.3314,0.3321,0.3336,0.3352,0.3371,0.3431,0.3441,0.3499,0.3562,0.359,0.3618,0.3723,0.3699,0.375,0.3778,0.3846,0.386,0.3873,0.3871,0.3884,0.3737,0.3737,0.3738,0,0.3259,0.3267,0.3278,0.3304,0.3326,0.3341,0.3372,0.3402,0.3435,0.347,0.3464,0.3595,0.3606,0.3707,0.3734,0.3749,0.3763,0.3712,0.3859,0.3872,0.3884,0.3879,0.3891,0.3742,0.3741,0.3741,0.374,0,0.3285,0.3303,0.3321,0.3353,0.3385,0.3415,0.3458,0.3495,0.3527,0.3562,0.3677,0.3711,0.3783,0.3806,0.3794,0.3897,0.3872,0.3879,0.3811,0.3906,0.3895,0.3907,0.3748,0.3747,0.3745,0.3744,0,0,0.3272,0.3328,0.3328,0.3353,0.3411,0.3434,0.3509,0.3576,0.3635,0.37,0.3785,0.3873,0.3899,0.3931,0.3944,0.3974,0.4049,0.3952,0.3954,0.393,0.4162,0.4021,0.4019,0.4093,0.4096,0.4098,0.4112,0,0.3284,0.3321,0.3358,0.3411,0.3436,0.3493,0.356,0.3634,0.3708,0.3796,0.3873,0.397,0.3952,0.3996,0.4037,0.4067,0.4087,0.4041,0.409,0.4089,0.3938,0.4031,0.3721,0.3698,0.4123,0.4125,0.4126,0,0.3283,0.3304,0.3352,0.343,0.3452,0.3506,0.3612,0.3681,0.382,0.3882,0.3999,0.4065,0.4153,0.4118,0.4211,0.419,0.4175,0.4173,0.4174,0.4022,0.3971,0.3679,0.3702,0.4145,0.4143,0.4142,0.4141,0,0.3232,0.3299,0.3333,0.3358,0.3455,0.3511,0.358,0.3712,0.3784,0.395,0.4026,0.4159,0.423,0.4276,0.4274,0.4263,0.4342,0.4332,0.4184,0.4172,0.3902,0.386,0.4381,0.4381,0.4381,0.4381,0.4381,0,0.3211,0.3233,0.3316,0.3332,0.34,0.3493,0.3596,0.3688,0.3832,0.3927,0.4075,0.4158,0.4277,0.4338,0.4321,0.4284,0.4393,0.4194,0.4183,0.3916,0.3878,0.4262,0.4249,0.4382,0.4381,0.4381,0.4381,0,0.315,0.3196,0.3243,0.3344,0.3379,0.3438,0.3584,0.3658,0.3809,0.3937,0.3995,0.4178,0.4256,0.4323,0.4379,0.4323,0.4307,0.4252,0.3894,0.3839,0.4072,0.4062,0.4107,0.4103,0.4099,0.4096,0.4093,0,0.3116,0.3132,0.3232,0.3265,0.3318,0.341,0.3474,0.3626,0.3708,0.3922,0.3975,0.4116,0.4161,0.4202,0.414,0.4093,0.4203,0.3764,0.3684,0.4068,0.4053,0.4049,0.4044,0.3346,0.3338,0.3331,0.3325,0,0.306,0.3109,0.3146,0.3208,0.3277,0.333,0.3439,0.3465,0.3642,0.3738,0.3836,0.3888,0.396,0.378,0.3745,0.368,0.3757,0.3617,0.415,0.3463,0.3352,0.3336,0.3357,0.3263,0.3269,0.3273,0.3277,0.3279,0.3023,0.3034,0.3094,0.3134,0.3199,0.3204,0.3181,0.328,0.3323,0.3397,0.3568,0.3538,0.3573,0.3349,0.322,0.3123,0.3378,0.3227,0.3249,0.3278,0.3187,0.3075,0.2913,0.2917,0.2921,0.2924,0.2927,0,0.2947,0.2972,0.3012,0.3029,0.3013,0.3097,0.3115,0.3041,0.2991,0.3113,0.3154,0.289,0.2759,0.2787,0.253,0.2505,0.2489,0.2409,0.2368,0.2432,0.2488,0.2357,0.1864,0.186,0.1857,0.1854,0,0,0.2918,0.2901,0.2896,0.2819,0.2823,0.2721,0.2669,0.2604,0.2619,0.2529,0.2496,0.2694,0.2734,0.2289,0.2211,0.1991,0.2204,0.1914,0.2773,0.2792,0.2845,0.2969,0.284,0,0,0,0,0]},{"header":{"parameterUnit":"m.s-1","parameterCategory":2,"la1":30.2991,"la2":30.254,"lo1":-89.0895,"lo2":-89.0444,"dy":0.0017,"dx":0.0017,"nx":28,"ny":28,"refTime":"2025-07-21T21:00:00:Z","depth":"2","parameterNumber":3,"parameterNumberName":"V-component_of_CURRENTS"},"data":[0,0,0,0,0,0,0,0,0,0,0,0,0,0,0,0,0,0,0,0,0,0,0,0,0,0,0,0,0,0,0,0,0,0,0,0,0,0,0,0,0,0,0,0,0,0,0,0,0,0,0,0,0,0,0,0,0,0,0.0231,0.0231,0,0.0209,0.0209,0.0208,0.0186,0.0185,0.0185,0.0185,0.0161,0.0161,0.016,0,0,0,0,0,0,0,0,0,0,0,0,0,0.0208,0.0209,0.0231,0.0231,0.0231,0.0209,0.0209,0.0208,0.0186,0.0185,0.0185,0.0185,0.0161,0.0161,0.016,0,0,0,0,0,0,0,0,0,0,0,0,0,0.0205,0.0209,0.0231,0.0217,0.0216,0.0209,0.0209,0.0208,0.0186,0.0185,0.0185,0.0185,0.0161,0.0161,0.016,0.0164,0,0,0.0158,0.0158,0,0,0,0,0,0,0,0,0.0205,0.0206,0.022,0.0218,0.0217,0.02,0.0192,0.0194,0.0186,0.0197,0.0185,0.0184,0.0175,0.0173,0.0169,0.0163,0.0162,0.0158,0.0158,0.0158,0.0158,0,0,0,0,0,0,0,0.0206,0.0206,0.0222,0.0219,0.0218,0.0197,0.0196,0.0192,0.0188,0.0196,0.0194,0.0193,0.0174,0.0169,0.0168,0.0162,0.0158,0.0158,0.0158,0.0157,0.0179,0.018,0,0,0,0,0,0,0.0213,0.0207,0.0223,0.0221,0.0211,0.0198,0.0197,0.0205,0.0188,0.0185,0.0193,0.0192,0.0171,0.0169,0.0167,0.0203,0.0158,0.0157,0.0157,0.0178,0.018,0.0181,0,0,0,0,0,0,0.0212,0.0215,0.0223,0.0213,0.0213,0.0199,0.0208,0.0205,0.0205,0.0186,0.0183,0.0196,0.017,0.0168,0.0181,0.02,0.0157,0.0156,0.0177,0.0179,0.018,0.0253,0,0,0,0,0,0,0.0212,0.0215,0.0222,0.0214,0.0214,0.023,0.0209,0.0205,0.0205,0.0203,0.0188,0.0185,0.017,0.0182,0.018,0.0199,0.0156,0.0176,0.0178,0.018,0.025,0.0257,0.0263,0,0,0,0,0,0.0212,0.0229,0.0223,0.0225,0.0225,0.023,0.0229,0.0216,0.0205,0.0213,0.0208,0.0185,0.0191,0.0183,0.018,0.0199,0.0175,0.0177,0.0179,0.0246,0.0255,0.0263,0,0,0,0,0,0,0.0221,0.0228,0.0221,0.0239,0.0238,0.0227,0.0231,0.0222,0.0223,0.0224,0.0202,0.02,0.0216,0.0199,0.0189,0.021,0.0178,0.0179,0.0229,0.0238,0.0244,0.0261,0.0155,0,0,0,0,0,0.0227,0.0243,0.0241,0.0254,0.0256,0.0244,0.0243,0.0239,0.0237,0.0237,0.0228,0.0221,0.0223,0.0224,0.0219,0.0234,0.0206,0.0242,0.0249,0.0255,0.0267,0.0249,0.0255,0.0188,0.0188,0.0187,0,0,0.0234,0.0239,0.0247,0.0257,0.0253,0.0274,0.0243,0.0252,0.0276,0.0235,0.0264,0.0245,0.0232,0.025,0.0255,0.0239,0.0256,0.0258,0.0263,0.0272,0.0252,0.0259,0.0264,0.0189,0.0189,0.0188,0,0,0.0263,0.0261,0.0287,0.0293,0.0298,0.0296,0.0303,0.0301,0.0306,0.0329,0.0307,0.0305,0.0307,0.0302,0.0299,0.0341,0.0294,0.0333,0.0383,0.0366,0.0371,0.0376,0.0334,0.0334,0.0337,0.0337,0.0337,0,0.0269,0.0306,0.0293,0.0321,0.0337,0.0312,0.0349,0.0353,0.0357,0.0374,0.0351,0.0358,0.0335,0.0364,0.0372,0.0358,0.033,0.0354,0.0375,0.0379,0.0382,0.0339,0.0338,0.0341,0.034,0.034,0.0339,0,0.0324,0.035,0.0366,0.0398,0.041,0.0437,0.0443,0.046,0.0459,0.0461,0.0486,0.0456,0.0462,0.0446,0.0421,0.0438,0.0403,0.0385,0.0355,0.0394,0.0345,0.0343,0.0346,0.0345,0.0343,0.0343,0,0,0.035,0.0398,0.0403,0.044,0.0459,0.0483,0.0522,0.0558,0.0601,0.0584,0.0632,0.0608,0.0582,0.0576,0.0539,0.0511,0.0493,0.046,0.0457,0.042,0.0436,0.0395,0.0388,0.0478,0.0479,0.0479,0.0387,0,0.0399,0.0475,0.0482,0.0557,0.0601,0.06,0.0647,0.0673,0.0685,0.0722,0.0685,0.0712,0.0637,0.0643,0.0605,0.0533,0.0494,0.0518,0.0403,0.04,0.036,0.0387,0.0394,0.0313,0.0385,0.0385,0.0384,0,0.0457,0.0503,0.0585,0.0663,0.0682,0.0722,0.0798,0.0841,0.0871,0.088,0.0881,0.085,0.0821,0.0749,0.0639,0.0658,0.0554,0.0479,0.0474,0.0412,0.0356,0.0288,0.0306,0.038,0.0381,0.0381,0.0381,0,0.0501,0.058,0.0654,0.0678,0.0753,0.0797,0.0844,0.0891,0.0956,0.0986,0.1024,0.0973,0.0968,0.0842,0.0674,0.0664,0.0533,0.0503,0.0363,0.0357,0.033,0.0322,0.0418,0.0419,0.0419,0.0419,0.0419,0,0.0563,0.0622,0.0686,0.0729,0.0838,0.0864,0.098,0.1016,0.1085,0.118,0.1115,0.1158,0.0991,0.0894,0.072,0.0535,0.0568,0.0378,0.0341,0.0354,0.0349,0.0385,0.0382,0.0416,0.0416,0.0417,0.0418,0,0.0606,0.0641,0.0739,0.0827,0.0865,0.0949,0.108,0.1173,0.1211,0.1332,0.135,0.1305,0.1182,0.0982,0.0775,0.0612,0.0426,0.0343,0.0355,0.0321,0.0248,0.025,0.02,0.0198,0.0196,0.0195,0.0194,0,0.0637,0.0688,0.0811,0.0887,0.0934,0.1056,0.1157,0.1236,0.1342,0.1426,0.1497,0.1411,0.1364,0.1028,0.0733,0.0431,0.0394,0.0231,0.0216,0.0261,0.023,0.0235,0.0239,0.0197,0.0196,0.0195,0.0194,0,0.0698,0.0737,0.082,0.0972,0.1089,0.123,0.1375,0.1465,0.1574,0.1649,0.1713,0.1671,0.138,0.1075,0.0662,0.0455,0.0283,0.0204,0.0261,0.0255,0.0252,0.0223,0.0229,0.0186,0.0187,0.0187,0.0188,0.0188,0.0746,0.0814,0.0924,0.1071,0.1212,0.1379,0.1494,0.1636,0.1777,0.1895,0.1855,0.1786,0.1465,0.0931,0.0579,0.0216,0.0244,0.0104,0.0109,0.0115,0.0136,0.0131,0.0044,0.0044,0.0044,0.0044,0.0044,0,0.0808,0.0888,0.1021,0.1194,0.1347,0.1416,0.1627,0.1729,0.1878,0.1974,0.2004,0.1668,0.1324,0.0947,0.0411,0.0097,0.0083,-0.0014,0.0039,0.0048,0.0056,0.0076,-0.0034,-0.0035,-0.0035,-0.0036,0,0,0.0843,0.0966,0.103,0.1269,0.1394,0.1586,0.17,0.1843,0.194,0.1997,0.1962,0.1897,0.1428,0.1028,0.0594,0.028,0.024,0.0214,0.0307,0.043,0.0442,0.0149,0.0193,0,0,0,0,0]}],[{"header":{"parameterUnit":"m.s-1","parameterCategory":2,"la1":30.2991,"la2":30.254,"lo1":-89.0895,"lo2":-89.0444,"dy":0.0017,"dx":0.0017,"nx":28,"ny":28,"refTime":"2025-07-21T21:00:00:Z","depth":"4","parameterNumber":2,"parameterNumberName":"U-component_of_CURRENTS"},"data":[0,0,0,0,0,0,0,0,0,0,0,0,0,0,0,0,0,0,0,0,0,0,0,0,0,0,0,0,0,0,0,0,0,0,0,0,0,0,0,0,0,0,0,0,0,0,0,0,0,0,0,0,0,0,0,0,0,0,0.2038,0.2039,0,0.2078,0.2078,0.2078,0.2119,0.212,0.2121,0.2122,0.2137,0.2137,0.2136,0,0,0,0,0,0,0,0,0,0,0,0,0,0.197,0.1971,0.2038,0.2039,0.204,0.2078,0.2078,0.2078,0.2119,0.212,0.2121,0.2123,0.2138,0.2137,0.2136,0,0,0,0,0,0,0,0,0,0,0,0,0,0.1999,0.1971,0.2038,0.2069,0.2072,0.2078,0.2078,0.2078,0.2119,0.212,0.2122,0.2123,0.2138,0.2137,0.2136,0.21,0,0,0.2134,0.2133,0,0,0,0,0,0,0,0,0.1997,0.2,0.2063,0.2067,0.2071,0.21,0.206,0.2086,0.2118,0.2095,0.2122,0.2124,0.2125,0.2125,0.2122,0.2101,0.2102,0.2134,0.2133,0.2133,0.2133,0,0,0,0,0,0,0,0.1995,0.1999,0.2049,0.2064,0.2069,0.2072,0.2077,0.2065,0.2096,0.2098,0.2102,0.2114,0.2126,0.2123,0.2123,0.2102,0.2134,0.2133,0.2132,0.2132,0.2168,0.2169,0,0,0,0,0,0,0.2,0.1997,0.2048,0.205,0.2043,0.2072,0.2078,0.2085,0.2097,0.2102,0.2113,0.2116,0.2123,0.2124,0.2124,0.2204,0.2133,0.2132,0.2132,0.2166,0.2168,0.217,0,0,0,0,0,0,0.1998,0.2004,0.2046,0.2029,0.2036,0.2073,0.2079,0.2085,0.2127,0.211,0.2114,0.2155,0.2125,0.2125,0.2147,0.2201,0.2132,0.2131,0.2165,0.2167,0.2169,0.2287,0,0,0,0,0,0,0.1996,0.2003,0.203,0.2029,0.2037,0.2074,0.2078,0.2085,0.2132,0.2137,0.2146,0.2147,0.2126,0.2148,0.2146,0.2198,0.213,0.2163,0.2166,0.2168,0.2281,0.2293,0.2303,0,0,0,0,0,0.1993,0.2014,0.2031,0.2039,0.2066,0.2076,0.2079,0.2107,0.2133,0.215,0.2162,0.2149,0.2164,0.2148,0.2145,0.2199,0.2161,0.2165,0.2168,0.2276,0.2291,0.2303,0,0,0,0,0,0,0.2,0.2021,0.2039,0.2068,0.2086,0.2085,0.2114,0.2132,0.2154,0.2175,0.2159,0.2159,0.2206,0.2176,0.2159,0.2215,0.2164,0.2167,0.2248,0.2261,0.2271,0.227,0.213,0,0,0,0,0,0.2015,0.2039,0.2053,0.2082,0.2095,0.2114,0.2133,0.2151,0.2163,0.2178,0.2184,0.2192,0.2207,0.2215,0.2215,0.2234,0.2227,0.2268,0.2279,0.2288,0.2284,0.233,0.2345,0.218,0.218,0.218,0,0,0.2026,0.2043,0.2059,0.2087,0.2105,0.2122,0.2129,0.2167,0.2192,0.2172,0.2219,0.2235,0.2222,0.2256,0.2274,0.2244,0.2333,0.2292,0.2301,0.2291,0.2335,0.2351,0.2366,0.2182,0.2182,0.2182,0,0,0.2037,0.2077,0.2093,0.2113,0.2153,0.2161,0.2184,0.2208,0.2237,0.2274,0.2279,0.2326,0.2331,0.2341,0.2344,0.2409,0.2395,0.2418,0.2468,0.2514,0.2528,0.254,0.2564,0.2577,0.2417,0.2417,0.2418,0,0.2053,0.2071,0.2101,0.2119,0.2142,0.2184,0.2201,0.2231,0.2263,0.2295,0.2306,0.237,0.2372,0.2418,0.2448,0.2438,0.245,0.2425,0.253,0.2542,0.2553,0.2574,0.2587,0.2423,0.2423,0.2422,0.2422,0,0.2057,0.209,0.2104,0.214,0.217,0.2196,0.2236,0.2285,0.2337,0.2368,0.2449,0.2463,0.2503,0.2522,0.2507,0.2587,0.2568,0.2548,0.2502,0.2577,0.2593,0.2606,0.2432,0.243,0.2428,0.2427,0,0,0.2038,0.2093,0.2106,0.2125,0.2185,0.2203,0.2268,0.2324,0.2388,0.2447,0.2519,0.2573,0.2615,0.2619,0.2626,0.2661,0.2763,0.2643,0.2643,0.2675,0.286,0.2666,0.2659,0.2772,0.2775,0.2777,0.2846,0,0.2031,0.2061,0.2098,0.214,0.2155,0.2223,0.2281,0.2354,0.2427,0.2509,0.2569,0.2645,0.2641,0.2691,0.2731,0.276,0.2798,0.2745,0.2774,0.2774,0.2599,0.2667,0.2785,0.2855,0.2857,0.2859,0.2861,0,0.2016,0.204,0.2075,0.2142,0.2161,0.2209,0.2322,0.2378,0.2506,0.2572,0.2668,0.2719,0.2808,0.2789,0.2883,0.2855,0.2869,0.2877,0.2879,0.2658,0.26,0.2759,0.2881,0.288,0.2878,0.2877,0.2876,0,0.1968,0.2024,0.2054,0.2076,0.2162,0.2218,0.2285,0.2413,0.248,0.263,0.2706,0.2809,0.2889,0.2927,0.2964,0.2945,0.304,0.3013,0.2844,0.283,0.2934,0.292,0.3068,0.3068,0.3068,0.3068,0.3067,0,0.1924,0.1954,0.2047,0.2062,0.2122,0.221,0.2305,0.2394,0.254,0.2619,0.2746,0.2815,0.2934,0.2997,0.3,0.2955,0.308,0.2855,0.2836,0.2982,0.2972,0.2943,0.2928,0.307,0.307,0.3069,0.3069,0,0.1858,0.1917,0.1951,0.2055,0.2096,0.2148,0.2296,0.2365,0.2528,0.2636,0.2694,0.2865,0.2948,0.3015,0.3089,0.2991,0.2971,0.292,0.3077,0.3065,0.2722,0.2712,0.2736,0.273,0.2725,0.272,0.2717,0,0.1816,0.1832,0.1931,0.1954,0.2007,0.2103,0.217,0.234,0.241,0.2631,0.2663,0.2824,0.2904,0.2852,0.2939,0.2925,0.2883,0.2848,0.2769,0.271,0.269,0.2688,0.2686,0.2708,0.2707,0.2705,0.2704,0,0.1723,0.1783,0.1811,0.1868,0.1933,0.1984,0.2096,0.2137,0.233,0.2497,0.2568,0.261,0.2693,0.2737,0.2748,0.2729,0.2855,0.2791,0.2801,0.2728,0.2676,0.2661,0.2665,0.2686,0.2688,0.269,0.2691,0,0.1659,0.1658,0.1714,0.1748,0.1825,0.1846,0.1913,0.1995,0.2089,0.2336,0.2355,0.2513,0.2674,0.2636,0.2644,0.2614,0.2566,0.2458,0.2484,0.2506,0.2393,0.2291,0.2169,0,0,0,0,0,0.158,0.1567,0.1584,0.1607,0.1685,0.173,0.1856,0.1936,0.2128,0.2116,0.2231,0.2292,0.2327,0.2415,0.2335,0.2531,0.2569,0.2424,0.2457,0.2583,0.2605,0.249,0,0,0,0,0,0,0.152,0.1538,0.1532,0.1493,0.1499,0.1563,0.1639,0.176,0.1763,0.1966,0.2003,0.2143,0.2218,0.2353,0.2293,0.2313,0.228,0.2525,0.2518,0.2571,0.2591,0.2608,0.2498,0,0,0,0,0]},{"header":{"parameterUnit":"m.s-1","parameterCategory":2,"la1":30.2991,"la2":30.254,"lo1":-89.0895,"lo2":-89.0444,"dy":0.0017,"dx":0.0017,"nx":28,"ny":28,"refTime":"2025-07-21T21:00:00:Z","depth":"4","parameterNumber":3,"parameterNumberName":"V-component_of_CURRENTS"},"data":[0,0,0,0,0,0,0,0,0,0,0,0,0,0,0,0,0,0,0,0,0,0,0,0,0,0,0,0,0,0,0,0,0,0,0,0,0,0,0,0,0,0,0,0,0,0,0,0,0,0,0,0,0,0,0,0,0,0,0.0147,0.0147,0,0.0136,0.0136,0.0136,0.0127,0.0127,0.0127,0.0127,0.012,0.012,0.012,0,0,0,0,0,0,0,0,0,0,0,0,0,0.0131,0.0132,0.0147,0.0147,0.0147,0.0137,0.0136,0.0136,0.0127,0.0127,0.0127,0.0127,0.012,0.012,0.012,0,0,0,0,0,0,0,0,0,0,0,0,0,0.0131,0.0132,0.0147,0.0141,0.0141,0.0137,0.0136,0.0136,0.0127,0.0127,0.0127,0.0127,0.012,0.012,0.012,0.0122,0,0,0.012,0.012,0,0,0,0,0,0,0,0,0.0131,0.0132,0.0142,0.0142,0.0141,0.0133,0.0128,0.0132,0.0127,0.0132,0.0127,0.0127,0.0125,0.0125,0.0123,0.0122,0.0121,0.012,0.012,0.012,0.0119,0,0,0,0,0,0,0,0.0131,0.0132,0.0143,0.0142,0.0142,0.0129,0.0129,0.0129,0.013,0.0132,0.0131,0.013,0.0125,0.0123,0.0122,0.0121,0.012,0.012,0.0119,0.0119,0.0123,0.0123,0,0,0,0,0,0,0.0134,0.0132,0.0143,0.0143,0.0136,0.013,0.013,0.0136,0.0129,0.0128,0.013,0.013,0.0123,0.0123,0.0122,0.0143,0.012,0.0119,0.0119,0.0122,0.0123,0.0123,0,0,0,0,0,0,0.0134,0.0136,0.0144,0.0137,0.0137,0.013,0.0137,0.0136,0.0139,0.0128,0.0127,0.0135,0.0123,0.0122,0.0133,0.0142,0.0119,0.0119,0.0122,0.0122,0.0123,0.0172,0,0,0,0,0,0,0.0134,0.0136,0.0142,0.0137,0.0137,0.015,0.0137,0.0136,0.0138,0.0137,0.0132,0.0131,0.0123,0.0134,0.0133,0.0141,0.0119,0.0122,0.0122,0.0123,0.017,0.0174,0.0177,0,0,0,0,0,0.0134,0.0146,0.0143,0.0144,0.0146,0.015,0.0149,0.0144,0.0139,0.0145,0.0144,0.0132,0.0135,0.0135,0.0134,0.0141,0.0122,0.0122,0.0123,0.0168,0.0173,0.0177,0,0,0,0,0,0,0.014,0.0146,0.0142,0.0155,0.0155,0.0149,0.0153,0.0149,0.0152,0.0154,0.0142,0.0142,0.0152,0.0139,0.0139,0.0141,0.0123,0.0123,0.0158,0.0162,0.0165,0.0178,0.0119,0,0,0,0,0,0.0145,0.0157,0.0156,0.0165,0.0167,0.0161,0.0162,0.0161,0.0161,0.0162,0.016,0.0154,0.0151,0.0152,0.0148,0.0156,0.0129,0.0156,0.0159,0.0162,0.0171,0.0134,0.0136,0.0124,0.0124,0.0124,0,0,0.015,0.0154,0.016,0.0167,0.0166,0.0182,0.0162,0.017,0.0187,0.0162,0.0185,0.017,0.0156,0.0165,0.0167,0.0157,0.015,0.0163,0.0166,0.0173,0.0135,0.0136,0.0137,0.0124,0.0124,0.0124,0,0,0.0169,0.017,0.0187,0.0194,0.0199,0.0198,0.0204,0.0205,0.021,0.0228,0.021,0.0203,0.0206,0.0193,0.0187,0.0206,0.0171,0.02,0.023,0.0194,0.0195,0.0195,0.016,0.0157,0.02,0.0201,0.0201,0,0.0174,0.0199,0.0192,0.0212,0.0225,0.021,0.0237,0.0239,0.0246,0.0254,0.0244,0.0234,0.022,0.0221,0.0226,0.0215,0.0189,0.0218,0.0199,0.0199,0.0199,0.0162,0.0158,0.0203,0.0203,0.0202,0.0202,0,0.021,0.0231,0.0242,0.0266,0.0277,0.0297,0.0302,0.0315,0.0316,0.0314,0.0319,0.0293,0.0286,0.0272,0.0259,0.0248,0.0228,0.0209,0.0191,0.0203,0.0163,0.0158,0.0206,0.0206,0.0205,0.0204,0,0,0.0225,0.0261,0.0267,0.0295,0.0311,0.033,0.0356,0.0378,0.0403,0.0388,0.0407,0.0383,0.0358,0.0349,0.0316,0.0281,0.025,0.0249,0.0246,0.0219,0.017,0.0157,0.015,0.0227,0.0227,0.0226,0.0143,0,0.0258,0.0313,0.032,0.0377,0.0409,0.0411,0.0443,0.0458,0.0461,0.0474,0.043,0.0437,0.039,0.0388,0.0344,0.0279,0.0239,0.0275,0.0159,0.0156,0.0147,0.0145,0.0225,0.0139,0.0137,0.0136,0.0136,0,0.0296,0.0331,0.0391,0.0451,0.0465,0.0497,0.0547,0.0576,0.0578,0.0579,0.0557,0.0521,0.0476,0.0432,0.0319,0.0343,0.0266,0.0204,0.0199,0.0169,0.0134,0.0124,0.0126,0.0127,0.0127,0.0128,0.0129,0,0.0324,0.0386,0.0441,0.046,0.0517,0.0551,0.0586,0.0609,0.0649,0.0645,0.0657,0.0589,0.0567,0.0457,0.0329,0.0326,0.0193,0.0171,0.0082,0.008,0.0095,0.0095,0.0087,0.0087,0.0087,0.0088,0.0088,0,0.0362,0.0409,0.0464,0.0497,0.0579,0.0601,0.0682,0.0703,0.0735,0.0782,0.0715,0.0716,0.0573,0.0479,0.0349,0.0201,0.0205,0.009,0.0059,0.0116,0.012,0.009,0.0092,0.0085,0.0085,0.0086,0.0086,0,0.0387,0.0418,0.0492,0.0564,0.0597,0.0659,0.076,0.0817,0.0832,0.0885,0.0888,0.0818,0.0698,0.0538,0.0359,0.0242,0.0092,0.0036,0.0113,0.0087,-0.0003,0.0002,-0.0065,-0.0066,-0.0067,-0.0068,-0.0069,0,0.0405,0.0443,0.0543,0.06,0.0639,0.0735,0.0809,0.0866,0.0923,0.0942,0.0965,0.0875,0.0802,0.0542,0.0364,0.0115,0.0075,-0.0012,-0.0011,0.0005,-0.0018,-0.0012,-0.0005,-0.007,-0.007,-0.007,-0.0071,0,0.0436,0.047,0.0532,0.0646,0.0736,0.0843,0.0942,0.0989,0.1049,0.106,0.1033,0.09,0.0763,0.0554,0.0362,0.0178,0.0039,-0.0022,-0.0022,-0.0022,-0.0002,-0.0022,-0.0015,-0.0074,-0.0074,-0.0073,-0.0073,0,0.046,0.0507,0.0586,0.0692,0.0807,0.0915,0.0969,0.1035,0.109,0.1102,0.1088,0.0934,0.0853,0.0586,0.0405,0.0228,0.0179,0.0106,0.0099,0.01,0.0167,0.0218,0.019,0,0,0,0,0,0.0483,0.0535,0.0627,0.0743,0.0858,0.0928,0.1045,0.1087,0.1134,0.1128,0.1113,0.0983,0.0725,0.0612,0.0436,0.0373,0.0138,0.0157,0.0048,-0.0092,-0.0088,-0.004,0,0,0,0,0,0,0.0496,0.0577,0.0622,0.0765,0.085,0.0982,0.1061,0.1097,0.1091,0.1103,0.0975,0.0917,0.0672,0.0826,0.0425,0.0372,0.0272,0.0043,0.0038,-0.0094,-0.0091,-0.0088,-0.0037,0,0,0,0,0]}]]